Time,TemperatureF,DewpointF,PressureIn,WindDirection,WindDirectionDegrees,WindSpeedMPH,WindSpeedGustMPH,Humidity,HourlyPrecipIn,Conditions,Clouds,dailyrainin,SolarRadiationWatts/m^2,SoftwareType,DateUTC
2013-10-21 00:04:00,62.0,61.0,-100.00,SW,217,0.0,3.0,98,0.00,,,0.00,0.000000,,2013-10-21 04:04:00,
2013-10-21 00:44:00,62.0,61.0,-100.00,SW,217,0.0,3.0,98,0.00,,,0.00,0.000000,,2013-10-21 04:44:00,
2013-10-21 00:54:00,62.0,61.0,-100.00,SW,217,0.0,3.0,98,0.00,,,0.00,0.000000,,2013-10-21 04:54:00,
2013-10-21 01:43:00,63.0,62.0,-100.00,NE,44,1.0,2.0,98,0.00,,,0.00,0.000000,,2013-10-21 05:43:00,
2013-10-21 01:52:00,63.0,62.0,-100.00,NE,44,1.0,2.0,98,0.00,,,0.00,0.000000,,2013-10-21 05:52:00,
2013-10-21 02:02:00,63.0,62.0,-100.00,NE,44,1.0,2.0,98,0.00,,,0.00,0.000000,,2013-10-21 06:02:00,
2013-10-21 02:42:00,64.0,63.0,-100.00,North,6,0.0,2.0,98,0.00,,,0.00,0.000000,,2013-10-21 06:42:00,
2013-10-21 02:52:00,64.0,63.0,-100.00,North,6,0.0,2.0,98,0.00,,,0.00,0.000000,,2013-10-21 06:52:00,
2013-10-21 03:02:00,64.0,63.0,-100.00,North,6,0.0,2.0,98,0.00,,,0.00,0.000000,,2013-10-21 07:02:00,
2013-10-21 03:43:00,65.0,64.0,-100.00,SSE,155,1.0,2.0,98,0.00,,,0.00,0.000000,,2013-10-21 07:43:00,
2013-10-21 03:52:00,65.0,64.0,-100.00,SSE,155,1.0,2.0,98,0.00,,,0.00,0.000000,,2013-10-21 07:52:00,
2013-10-21 04:03:00,65.0,64.0,-100.00,SSE,155,1.0,2.0,98,0.00,,,0.00,0.000000,,2013-10-21 08:03:00,
2013-10-21 04:22:00,64.0,63.0,-100.00,NNW,337,1.0,1.0,98,0.00,,,0.00,0.000000,,2013-10-21 08:22:00,
2013-10-21 04:32:00,64.0,63.0,-100.00,NNW,337,1.0,1.0,98,0.00,,,0.00,0.000000,,2013-10-21 08:32:00,
2013-10-21 04:42:00,64.0,63.0,-100.00,NNW,337,1.0,1.0,98,0.00,,,0.00,0.000000,,2013-10-21 08:42:00,
2013-10-21 04:52:00,64.0,63.0,-100.00,NNW,337,1.0,1.0,98,0.00,,,0.00,0.000000,,2013-10-21 08:52:00,
2013-10-21 05:02:00,64.0,63.0,-100.00,NNW,337,1.0,1.0,98,0.00,,,0.00,0.000000,,2013-10-21 09:02:00,
2013-10-21 05:43:00,65.0,65.0,-100.00,NNW,348,1.0,4.0,99,0.00,,,0.00,0.000000,,2013-10-21 09:43:00,
2013-10-21 05:54:00,65.0,65.0,-100.00,NNW,348,1.0,4.0,99,0.00,,,0.00,0.000000,,2013-10-21 09:54:00,
2013-10-21 06:03:00,65.0,65.0,-100.00,NNW,348,1.0,4.0,99,0.00,,,0.00,0.000000,,2013-10-21 10:03:00,
2013-10-21 06:43:00,66.0,66.0,-100.00,NE,41,2.0,4.0,99,0.00,,,0.00,0.000000,,2013-10-21 10:43:00,
2013-10-21 06:53:00,66.0,66.0,-100.00,NE,41,2.0,4.0,99,0.00,,,0.00,0.000000,,2013-10-21 10:53:00,
2013-10-21 07:03:00,66.0,66.0,-100.00,NE,41,2.0,4.0,99,0.00,,,0.00,0.000000,,2013-10-21 11:03:00,
2013-10-21 07:42:00,67.0,66.0,-100.00,NE,41,2.0,5.0,97,0.00,,,0.00,0.000000,,2013-10-21 11:42:00,
2013-10-21 07:52:00,67.0,66.0,-100.00,NE,41,2.0,5.0,97,0.00,,,0.00,0.000000,,2013-10-21 11:52:00,
2013-10-21 08:01:00,67.0,66.0,-100.00,NE,41,2.0,5.0,97,0.00,,,0.00,0.000000,,2013-10-21 12:01:00,
2013-10-21 08:42:00,67.0,66.0,-100.00,ENE,71,1.0,6.0,95,0.00,,,-99.99,6.000000,,2013-10-21 12:42:00,
2013-10-21 08:52:00,67.0,66.0,-100.00,ENE,71,1.0,6.0,95,0.00,,,-99.99,6.000000,,2013-10-21 12:52:00,
2013-10-21 09:02:00,67.0,66.0,-100.00,ENE,71,1.0,6.0,95,0.00,,,-99.99,6.000000,,2013-10-21 13:02:00,
2013-10-21 09:42:00,69.0,67.0,-100.00,NE,53,3.0,6.0,92,0.00,,,0.00,76.000000,,2013-10-21 13:42:00,
2013-10-21 09:52:00,69.0,67.0,-100.00,NE,53,3.0,6.0,92,0.00,,,0.00,76.000000,,2013-10-21 13:52:00,
2013-10-21 10:02:00,69.0,67.0,-100.00,NE,53,3.0,6.0,92,0.00,,,0.00,76.000000,,2013-10-21 14:02:00,
2013-10-21 10:42:00,71.0,67.0,-100.00,NE,44,4.0,8.0,86,0.00,,,0.00,193.000000,,2013-10-21 14:42:00,
2013-10-21 10:52:00,71.0,67.0,-100.00,NE,44,4.0,8.0,86,0.00,,,0.00,193.000000,,2013-10-21 14:52:00,
2013-10-21 11:02:00,71.0,67.0,-100.00,NE,44,4.0,8.0,86,0.00,,,0.00,193.000000,,2013-10-21 15:02:00,
2013-10-21 11:04:00,74.0,68.0,-100.00,ENE,57,5.0,9.0,82,0.00,,,0.00,258.000000,,2013-10-21 15:04:00,
2013-10-21 11:43:00,74.0,68.0,-100.00,ENE,57,5.0,9.0,82,0.00,,,0.00,258.000000,,2013-10-21 15:43:00,
2013-10-21 11:54:00,74.0,68.0,-100.00,ENE,57,5.0,9.0,82,0.00,,,0.00,258.000000,,2013-10-21 15:54:00,
2013-10-21 12:23:00,78.0,68.0,-100.00,ENE,73,6.0,12.0,71,0.00,,,0.00,636.000000,,2013-10-21 16:23:00,
2013-10-21 12:33:00,78.0,68.0,-100.00,ENE,73,6.0,12.0,71,0.00,,,0.00,636.000000,,2013-10-21 16:33:00,
2013-10-21 12:43:00,78.0,68.0,-100.00,ENE,73,6.0,12.0,71,0.00,,,0.00,636.000000,,2013-10-21 16:43:00,
2013-10-21 12:54:00,78.0,68.0,-100.00,ENE,73,6.0,12.0,71,0.00,,,0.00,636.000000,,2013-10-21 16:54:00,
2013-10-21 13:02:00,78.0,68.0,-100.00,ENE,73,6.0,12.0,71,0.00,,,0.00,636.000000,,2013-10-21 17:02:00,
2013-10-21 13:22:00,74.0,65.0,-100.00,NE,53,3.0,10.0,74,0.00,,,0.00,205.000000,,2013-10-21 17:22:00,
2013-10-21 13:34:00,74.0,65.0,-100.00,NE,53,3.0,10.0,74,0.00,,,0.00,205.000000,,2013-10-21 17:34:00,
2013-10-21 13:43:00,74.0,65.0,-100.00,NE,53,3.0,10.0,74,0.00,,,0.00,205.000000,,2013-10-21 17:43:00,
2013-10-21 13:53:00,74.0,65.0,-100.00,NE,53,3.0,10.0,74,0.00,,,0.00,205.000000,,2013-10-21 17:53:00,
2013-10-21 14:02:00,74.0,65.0,-100.00,NE,53,3.0,10.0,74,0.00,,,0.00,205.000000,,2013-10-21 18:02:00,
2013-10-21 14:42:00,74.0,64.0,-100.00,NE,54,5.0,12.0,71,0.00,,,0.00,177.000000,,2013-10-21 18:42:00,
2013-10-21 14:52:00,74.0,64.0,-100.00,NE,54,5.0,12.0,71,0.00,,,0.00,177.000000,,2013-10-21 18:52:00,
2013-10-21 15:02:00,74.0,64.0,-100.00,NE,54,5.0,12.0,71,0.00,,,0.00,177.000000,,2013-10-21 19:02:00,
2013-10-21 15:42:00,76.0,65.0,-100.00,ENE,66,4.0,10.0,68,0.00,,,0.00,273.000000,,2013-10-21 19:42:00,
2013-10-21 15:52:00,76.0,65.0,-100.00,ENE,66,4.0,10.0,68,0.00,,,0.00,273.000000,,2013-10-21 19:52:00,
2013-10-21 16:02:00,76.0,65.0,-100.00,ENE,66,4.0,10.0,68,0.00,,,0.00,273.000000,,2013-10-21 20:02:00,
2013-10-21 16:43:00,74.0,64.0,-100.00,North,6,3.0,9.0,72,0.00,,,0.00,227.000000,,2013-10-21 20:43:00,
2013-10-21 16:53:00,74.0,64.0,-100.00,North,6,3.0,9.0,72,0.00,,,0.00,227.000000,,2013-10-21 20:53:00,
2013-10-21 17:03:00,74.0,64.0,-100.00,North,6,3.0,9.0,72,0.00,,,0.00,227.000000,,2013-10-21 21:03:00,
2013-10-21 17:04:00,71.0,62.0,-100.00,NE,50,3.0,8.0,74,0.00,,,0.00,121.000000,,2013-10-21 21:04:00,
2013-10-21 17:44:00,71.0,62.0,-100.00,NE,50,3.0,8.0,74,0.00,,,0.00,121.000000,,2013-10-21 21:44:00,
2013-10-21 17:54:00,71.0,62.0,-100.00,NE,50,3.0,8.0,74,0.00,,,0.00,121.000000,,2013-10-21 21:54:00,
2013-10-21 18:24:00,70.0,63.0,-100.00,NNE,17,2.0,6.0,79,0.00,,,0.00,92.000000,,2013-10-21 22:24:00,
2013-10-21 18:34:00,70.0,63.0,-100.00,NNE,17,2.0,6.0,79,0.00,,,0.00,92.000000,,2013-10-21 22:34:00,
2013-10-21 18:44:00,70.0,63.0,-100.00,NNE,17,2.0,6.0,79,0.00,,,0.00,92.000000,,2013-10-21 22:44:00,
2013-10-21 18:54:00,70.0,63.0,-100.00,NNE,17,2.0,6.0,79,0.00,,,0.00,92.000000,,2013-10-21 22:54:00,
2013-10-21 19:03:00,70.0,63.0,-100.00,NNE,17,2.0,6.0,79,0.00,,,0.00,92.000000,,2013-10-21 23:03:00,
2013-10-21 19:22:00,68.0,63.0,-100.00,NNE,22,2.0,5.0,83,0.00,,,0.00,18.000000,,2013-10-21 23:22:00,
2013-10-21 19:34:00,68.0,63.0,-100.00,NNE,22,2.0,5.0,83,0.00,,,0.00,18.000000,,2013-10-21 23:34:00,
2013-10-21 19:42:00,68.0,63.0,-100.00,NNE,22,2.0,5.0,83,0.00,,,0.00,18.000000,,2013-10-21 23:42:00,
2013-10-21 19:53:00,68.0,63.0,-100.00,NNE,22,2.0,5.0,83,0.00,,,0.00,18.000000,,2013-10-21 23:53:00,
2013-10-21 20:02:00,68.0,63.0,-100.00,NNE,22,2.0,5.0,83,0.00,,,0.00,18.000000,,2013-10-22 00:02:00,
2013-10-21 20:22:00,67.0,62.0,-100.00,East,88,2.0,5.0,85,0.00,,,0.00,0.000000,,2013-10-22 00:22:00,
2013-10-21 20:32:00,67.0,62.0,-100.00,East,88,2.0,5.0,85,0.00,,,0.00,0.000000,,2013-10-22 00:32:00,
2013-10-21 20:42:00,67.0,62.0,-100.00,East,88,2.0,5.0,85,0.00,,,0.00,0.000000,,2013-10-22 00:42:00,
2013-10-21 20:53:00,67.0,62.0,-100.00,East,88,2.0,5.0,85,0.00,,,0.00,0.000000,,2013-10-22 00:53:00,
2013-10-21 21:03:00,67.0,62.0,-100.00,East,88,2.0,5.0,85,0.00,,,0.00,0.000000,,2013-10-22 01:03:00,
2013-10-21 21:42:00,65.0,63.0,-100.00,WSW,244,0.0,4.0,92,0.00,,,0.00,0.000000,,2013-10-22 01:42:00,
2013-10-21 21:53:00,65.0,63.0,-100.00,WSW,244,0.0,4.0,92,0.00,,,0.00,0.000000,,2013-10-22 01:53:00,
2013-10-21 22:02:00,65.0,63.0,-100.00,WSW,244,0.0,4.0,92,0.00,,,0.00,0.000000,,2013-10-22 02:02:00,
2013-10-21 22:43:00,64.0,63.0,-100.00,West,266,0.0,3.0,95,0.00,,,0.00,0.000000,,2013-10-22 02:43:00,
2013-10-21 22:52:00,64.0,63.0,-100.00,West,266,0.0,3.0,95,0.00,,,0.00,0.000000,,2013-10-22 02:52:00,
2013-10-21 23:03:00,64.0,63.0,-100.00,West,266,0.0,3.0,95,0.00,,,0.00,0.000000,,2013-10-22 03:03:00,
2013-10-21 23:04:00,65.0,64.0,-100.00,West,281,1.0,2.0,95,0.00,,,0.00,0.000000,,2013-10-22 03:04:00,
2013-10-21 23:45:00,65.0,64.0,-100.00,West,281,1.0,2.0,95,0.00,,,0.00,0.000000,,2013-10-22 03:45:00,
2013-10-21 23:55:00,65.0,64.0,-100.00,West,281,1.0,2.0,95,0.00,,,0.00,0.000000,,2013-10-22 03:55:00,